Location: Burzi?i
(45.0869°N, 16.0577°E)
Time: 11:05:22
(UTC+00:00)

Atlas Centaur 2 - Pass Details

Date: 29 October 2020
Orbit: 459 x 1309 km, 30.4° (Epoch: 27 November)

Event Time Altitude Azimuth Distance (km) Brightness Sun altitude
Rises 17:14:34 0° 242° (WSW) 4,106 7.0 -15.9°
Reaches altitude 10° 17:17:47 10° 231° (SW) 3,223 6.0 -16.4°
Maximum altitude 17:24:33 28° 176° (S) 2,214 4.3 -17.6°
Enters shadow 17:29:48 16° 130° (SE) 2,893 4.5 -18.5°
